This demonstration page uses our WeatherBlox Daily Observations layout. Learn more.

Left ArrowRight Arrow

Hourly Observations for May 14, 2015

Temp ( °F °C ) Dew Point ( °F °C ) Humidity (%) Winds ( mph kmh ) Pressure ( in mb ) Visibility ( mi km ) Precip ( " mm )
12:53 am 00:53 Clear 64 17.8 57 13.9 78 78 SE 10 17 29.91 1013 10 16 0.00 0.00
1:53 am 01:53 Clear 63 17.2 57 13.9 81 81 SE 10 17 29.91 1013 10 16 0.00 0.00
2:53 am 02:53 Clear 61 16.1 57 13.9 87 87 ESE 8 13 29.91 1013 10 16 0.00 0.00
3:53 am 03:53 Clear 61 16.1 58 14.4 90 90 ESE 9 15 29.90 1012 10 16 0.00 0.00
4:53 am 04:53 Clear 62 16.7 58 14.4 86 86 ESE 10 17 29.90 1013 9 14 0.00 0.00
5:53 am 05:53 Clear 62 16.7 58 14.4 86 86 ESE 7 11 29.89 1012 10 16 0.00 0.00
6:53 am 06:53 Clear 62 16.7 58 14.4 86 86 ESE 8 13 29.90 1012 10 16 0.00 0.00
7:53 am 07:53 Sunny 63 17.2 60 15.6 90 90 ESE 9 15 29.91 1013 10 16 0.00 0.00
8:53 am 08:53 Sunny 66 18.9 61 16.1 84 84 SE 9 15 29.93 1014 10 16 0.00 0.00
9:15 am 09:15 Mostly Sunny 67 19.4 61 16.1 81 81 SE 13 20 29.94 1014 10 16 0.00 0.00
9:53 am 09:53 Mostly Sunny 69 20.6 61 16.1 76 76 ESE 10 17 29.93 1014 10 16 0.00 0.00
10:53 am 10:53 Sunny 73 22.8 60 15.6 64 64 SE 10 17 29.93 1014 10 16 0.00 0.00
11:53 am 11:53 Mostly Sunny 76 24.4 61 16.1 60 60 SE 10 17 29.93 1014 10 16 0.00 0.00
12:53 pm 12:53 Sunny 79 26.1 59 15 50 50 SE 13 20 29.90 1013 10 16 0.00 0.00
1:53 pm 13:53 Sunny 82 27.8 59 15 46 46 SSE 14 22 29.86 1011 10 16 0.00 0.00
2:53 pm 14:53 Sunny 85 29.4 58 14.4 40 40 SE 16 26 29.83 1010 10 16 0.00 0.00
3:53 pm 15:53 Sunny 86 30 57 13.9 37 37 SSE 17 28 29.78 1009 10 16 0.00 0.00
4:34 pm 16:34 Mostly Cloudy with Thunderstorms 81 27 61 16 51 51 SSE 17 28 29.68 1005 10 16 0.00 0.00
4:53 pm 16:53 Cloudy with Thunderstorms 77 25 61 16.1 58 58 VRB 6 9 29.79 1009 10 16 0.00 0.03
5:17 pm 17:17 Mostly Sunny 81 27.2 63 17.2 54 54 SSE 16 26 29.68 1005 10 16 0.00 0.00
5:53 pm 17:53 Sunny 79 26.1 59 15 50 50 SE 22 35 29.76 1008 10 16 0.00 0.00
6:53 pm 18:53 Sunny 76 24.4 55 12.8 48 48 SE 9 15 29.76 1008 10 16 0.00 0.00
7:07 pm 19:07 Partly Cloudy with Nearby Thunderstorms 75 23.9 56 13.3 52 52 SSW 9 15 29.71 1006 10 16 0.00 0.00
7:14 pm 19:14 Windy with Storms Likely 73 23 54 12 50 50 WSW 25 41 29.77 1008 10 16 0.00 0.00
7:19 pm 19:19 Mostly Cloudy with Strong Thunderstorms 67 19.4 51 10.6 57 57 WSW 24 39 29.83 1010 1 2 0.16 4.06
7:28 pm 19:28 Mostly Cloudy with Thunderstorms 64 18 48 9 56 56 NNW 21 33 29.77 1008 1 2 0.00 0.00
7:31 pm 19:31 Windy with Storms Likely 67 19.4 48 8.9 51 51 NNW 20 31 29.77 1008 3 5 0.27 6.86
7:40 pm 19:40 Mostly Cloudy with Thunderstorms 66 19 52 11 60 60 SW 18 30 29.77 1008 10 16 0.00 0.00
7:44 pm 19:44 Mostly Cloudy with Nearby Thunderstorms 66 19 52 11 60 60 SSW 15 24 29.77 1008 10 16 0.00 0.00
7:53 pm 19:53 Partly Cloudy with Nearby Thunderstorms 67 19.4 53 11.7 61 61 S 13 20 29.78 1008 10 16 0.27 6.86
8:08 pm 20:08 Sunny 66 19 55 13 68 68 S 13 20 29.77 1008 10 16 0.00 0.00
8:19 pm 20:19 Sunny with Nearby Thunderstorms 66 18.9 56 13.3 70 70 SSE 8 13 29.77 1008 10 16 0.00 0.00
8:34 pm 20:34 Sunny 66 19 57 14 73 73 S 5 7 29.77 1008 10 16 0.00 0.00
8:53 pm 20:53 Clear 67 19.4 56 13.3 68 68 NNW 12 19 29.80 1009 10 16 0.00 0.00
9:53 pm 21:53 Clear 64 17.8 55 12.8 73 73 E 7 11 29.81 1009 10 16 0.00 0.00
10:53 pm 22:53 Clear 64 17.8 56 13.3 75 75 ESE 8 13 29.81 1010 10 16 0.00 0.00
11:53 pm 23:53 Clear 67 19.4 61 16.1 81 81 ESE 7 11 29.80 1009 10 16 0.00 0.00

Powered by AerisWeather